Regional Weather Roundup
Issued by NWS

Home | Current Version | Previous Version | Graphics & Text | Print | Product List | Glossary On
Versions: 1 2 3 4 5 6 7 8 9 10 11 12 13 14 15 16 17 18 19 20 21 22 23 24 25 26 27 28 29 30 31 32 33 34 35 36 37 38 39 40 41 42 43 44 45 46 47 48 49 50
000
ASUS43 KLOT 261208
RWRIL

ILLINOIS REGIONAL WEATHER ROUNDUP
NATIONAL WEATHER SERVICE CHICAGO/ROMEOVILLE IL
700 AM CDT TUE JUL 26 2016

NOTE: "FAIR" INDICATES FEW OR NO CLOUDS BELOW 12,000 FEET WITH NO
SIGNIFICANT WEATHER AND/OR OBSTRUCTIONS TO VISIBILITY.

* THESE STATIONS ARE NOT UNDER NWS QUALITY CONTROL. THEY ALSO MAY NOT
  REPORT WEATHER SUCH AS PRECIPITATION OR FOG.

ILZ001-002-007-009-015-016-024-261300-
NORTHWEST ILLINOIS

CITY           SKY/WX    TMP DP  RH WIND       PRES   REMARKS
MOLINE         MOSUNNY   68  65  90 CALM      30.07R
6HR MIN TEMP:  65; 6HR MAX TEMP:  69;

STERLING*      SUNNY     67  66  97 CALM      30.08R
SAVANNA*       SUNNY     67  65  92 CALM      30.08R
$$

ILZ003-004-008-010-011-017-018-261300-
NORTH CENTRAL ILLINOIS

CITY           SKY/WX    TMP DP  RH WIND       PRES   REMARKS
ROCKFORD       SUNNY     69  66  90 CALM      30.09R
6HR MIN TEMP:  67; 6HR MAX TEMP:  69;

FREEPORT*      SUNNY     64  63  97 CALM      30.11R
ROCHELLE*      SUNNY     67  65  94 CALM      30.09R
DE KALB*       SUNNY     69  66  88 CALM      30.09S
$$

ILZ005-006-012>014-019>023-261300-
NORTHEAST ILLINOIS

CITY           SKY/WX    TMP DP  RH WIND       PRES   REMARKS
CHICAGO-OHARE  MOSUNNY   74  66  76 NW5       30.07R
6HR MIN TEMP:  69; 6HR MAX TEMP:  76;

CHICAGO-MIDWAY MOSUNNY   76  67  73 CALM      30.06R
6HR MIN TEMP:  73; 6HR MAX TEMP:  78;

AURORA         SUNNY     69  65  86 CALM      30.08R
6HR MIN TEMP:  64; 6HR MAX TEMP:  69;

LANSING*       MOSUNNY   70  65  85 CALM      30.07R
JOLIET*        PTSUNNY   73  69  89 NE3       30.07R
WAUKEGAN       SUNNY     72  65  78 CALM      30.07R
6HR MIN TEMP:  64; 6HR MAX TEMP:  72;

DUPAGE AIRPORT SUNNY     71  66  84 CALM      30.07R
6HR MIN TEMP:  65; 6HR MAX TEMP:  71;

KANKAKEE*      PTSUNNY   69  68  97 CALM      30.07R
WHEELING       SUNNY     72  65  78 CALM      30.08R
6HR MIN TEMP:  69; 6HR MAX TEMP:  72;

MORRIS*        PTSUNNY   68  65  92 CALM      30.05S
ROMEOVILLE*    MOSUNNY   69  65  87 NE3       30.07S
NORTHERLY ISL    N/A     72  64  76 CALM        N/A
$$

LMZ740>746-261300-
SOUTHERN LAKE MICHIGAN

STATION/POSITION SKY/WX   TEMP    WIND        PRES    VSBY  WAVE
                          AIR SEA DIR/SP/G                  HT/PER
                          (F)     (DEG/KT/KT) (MB)    (MI)  (FT/S)
SOUTHERN BUOY              74 73  270/  6/  6 1017.2R         0
WILMETTE HARBOR            70 68   30/  2/  4   N/A           0
HARRISON CRIB              74     360/  2/  2   N/A
BURNHAM HARBOR             72      90/  2/  3   N/A
CALUMET HARBOR             70     330/  1/  1 1017.3R
BURNS HARBOR               72        CALM     1018.3R
MICHIGAN CITY              70     110/  3/  3   N/A
MICHIGAN CITY 6N           75 74  120/  2/  2   N/A           0
ST. JOSEPH                 74 75  170/  2/  2 1018.0R         0
$$

ILZ025>027-034>036-040-047-049-050-058-095>099-261300-
WEST-CENTRAL ILLINOIS

CITY           SKY/WX    TMP DP  RH WIND       PRES   REMARKS
QUINCY         SUNNY     69  66  90 NE5       30.06R
GALESBURG*     SUNNY     66  65  96 CALM      30.08R
MACOMB*        SUNNY     65  65  99 CALM      30.09R
JACKSONVILLE*  SUNNY     72  69  91 N3        30.05S
PITTSFIELD*    MOSUNNY   70  69  95 N3        30.07R
$$

ILZ028>032-037-038-041>044-048-051>054-059>061-261300-
CENTRAL ILLINOIS

CITY           SKY/WX    TMP DP  RH WIND       PRES   REMARKS
BLOOMINGTON    MOSUNNY   71  67  87 NE3       30.07R
DECATUR        CLOUDY    73  69  87 NE3       30.05R
PEORIA         SUNNY     71  68  90 CALM      30.06R
6HR MIN TEMP:  68; 6HR MAX TEMP:  73;

LACON*         SUNNY     68  66  92 CALM      30.05S
LINCOLN*       SUNNY     71  69  94 CALM      30.05R
SPRINGFIELD    MOSUNNY   74  69  85 NE3       30.05R
6HR MIN TEMP:  72; 6HR MAX TEMP:  74;

TAYLORVILLE    CLOUDY    72  71  96 MISG      30.04S
6HR MIN TEMP:  71; 6HR MAX TEMP:  73;

$$

ILZ033-039-045-046-055>057-062-063-261300-
EAST-CENTRAL ILLINOIS

CITY           SKY/WX    TMP DP  RH WIND       PRES   REMARKS
CHAMPAIGN      CLOUDY    74  69  85 NE6       30.05R
MATTOON        RAIN      73  71  93 CALM      30.04R FOG
PARIS*         CLOUDY    73  69  90 CALM      30.05R THUNDER
$$

ILZ079-100>102-261300-
SOUTHWEST ILLINOIS

CITY           SKY/WX    TMP DP  RH WIND       PRES   REMARKS
ALTON          CLOUDY    73  72  94 N7        30.03S
BELLEVILLE     CLOUDY    76  76 100 CALM      30.01R
CAHOKIA*       PTSUNNY   79  74  84 CALM      30.02R HX  82
SPARTA*        CLOUDY    76  75  96 CALM      30.04R
$$

ILZ064>066-069>071-074>076-080>082-084>086-088>090-092>094-261300-
SOUTH-CENTRAL ILLINOIS

CITY           SKY/WX    TMP DP  RH WIND       PRES   REMARKS
CARBONDALE     CLOUDY    77  75  93 W3        30.02R FOG
6HR MIN TEMP:  75; 6HR MAX TEMP:  77;

CAIRO*           N/A     75  75 100 CALM      30.02R FOG
EFFINGHAM*     TSTM      72  72 100 NE5       30.05R
MARION         FOG       77  77 100 SW6       30.03R VSB 1
MT. VERNON     CLOUDY    73  70  88 CALM      30.02S VSB 1/4
CENTRALIA*     CLOUDY    76  75  96 NE3       30.02R
SALEM*         CLOUDY    75  73  92 CALM      30.02S
METROPOLIS*      N/A     75  75  99 CALM      30.02R FOG
$$

ILZ067-068-072-073-078-083-087-091-261300-
SOUTHEAST ILLINOIS

CITY           SKY/WX    TMP DP  RH WIND       PRES   REMARKS
LAWRENCEVILLE  FOG       75  75 100 S3        30.02S VSB 3/4
FLORA*         CLOUDY    76  74  92 N12G17    30.02S
FAIRFIELD*     CLOUDY    74  74 100 CALM      30.01S FOG
HARRISBURG*    MOSUNNY   74  74 100 CALM      30.02R FOG
ROBINSON*      CLOUDY    76  75  98 SE5       30.03R FOG
CARMI*         PTSUNNY   74  74 100 CALM      30.01R FOG
$$

ABBREVIATIONS USED IN REMARKS
   TC - TEMPERATURE IN CELSIUS
  WCI - WIND CHILL INDEX
   HX - HEAT INDEX
  VSB - VISIBILITY
$$




USA.gov is the U.S. government's official web portal to all federal, state and local government web resources and services.